Wind_Speed
13 13 12 12 12 13 13 13 14 15 15 15 15 15 15 15 14 14 14 15 15 15 14 13 13 13 12 12 11 10 10 8 7 7 6 6 6 5 5 4 3 2 2 2
13 13 12 13 13 13 13 13 14 15 15 15 15 15 15 15 15 15 15 15 15 14 14 14 13 13 13 12 12 11 10 10 9 8 8 7 6 6 5 5 3 2 2 2
14 13 13 14 13 14 14 14 15 15 16 15 15 15 15 15 15 15 15 16 16 15 15 14 14 13 13 13 12 12 11 11 10 9 8 7 6 6 5 4 4 3 3 2
15 14 14 14 14 14 14 14 15 15 16 15 15 15 15 15 15 15 15 16 16 16 16 15 14 14 14 14 13 13 12 11 10 10 9 8 7 6 5 5 4 4 3 3
16 15 15 15 14 15 15 15 15 16 16 16 15 16 15 16 15 16 16 16 16 16 17 15 15 15 14 14 14 13 12 11 11 10 10 10 9 7 6 5 5 4 3 3
17 16 16 16 16 15 15 16 16 16 16 16 15 16 16 16 16 16 16 16 16 16 16 16 15 15 15 14 14 13 12 12 12 11 10 10 9 8 7 6 6 5 4 3
18 17 17 17 17 16 16 16 16 15 15 16 15 17 16 17 16 17 17 16 16 16 16 16 15 15 15 14 14 13 13 12 12 11 10 10 10 9 8 7 6 6 5 4
19 19 18 17 17 17 16 16 16 15 15 15 15 16 17 17 17 17 17 16 16 16 16 15 15 14 14 13 13 13 13 12 12 11 10 10 11 10 9 8 7 6 6 5
21 20 19 18 18 18 17 17 16 17 16 15 14 16 18 18 17 17 16 16 16 15 15 15 14 14 14 13 13 13 12 12 11 11 11 11 11 11 10 10 9 8 7 6
21 21 20 19 19 18 18 17 17 17 17 16 15 17 19 18 17 16 16 16 15 15 14 14 13 13 13 12 12 11 11 11 11 12 12 11 10 10 11 10 10 9 8 7
23 22 21 20 19 18 18 18 18 19 18 18 17 17 17 17 16 16 15 15 15 14 14 14 13 13 12 12 12 12 12 11 11 12 12 11 10 10 10 10 10 10 9 8
23 23 22 21 20 19 19 19 19 19 18 18 19 19 17 17 17 16 16 15 15 14 14 13 13 12 11 12 12 12 11 11 12 12 12 12 10 10 9 10 11 11 9 9
24 24 24 23 21 21 20 19 19 19 19 19 19 19 19 17 16 16 15 14 14 13 13 13 12 12 11 11 11 11 11 11 12 12 12 12 11 10 10 10 10 11 10 10
26 26 26 25 23 22 22 21 20 19 20 19 18 18 20 18 17 16 15 14 13 13 12 12 12 12 11 11 11 11 11 11 12 12 12 12 12 11 11 11 10 11 11 11
28 27 27 26 24 23 24 22 21 21 20 20 18 19 20 19 17 16 14 14 13 13 12 12 12 11 11 11 11 11 11 11 12 12 13 13 13 12 12 12 11 11 12 11
29 29 28 27 26 25 24 24 23 22 21 20 19 19 19 19 18 16 14 13 13 13 13 12 12 12 12 12 11 11 12 12 12 13 13 14 14 14 13 13 12 11 11 11
29 29 29 28 27 26 25 23 22 22 21 21 20 18 19 19 18 17 15 14 13 13 13 13 12 12 12 12 12 12 12 13 13 13 13 13 14 14 13 13 12 11 11 10
31 30 30 29 28 28 25 23 23 23 23 22 20 19 20 20 18 17 16 15 14 14 13 13 13 13 12 11 12 12 12 13 13 13 13 13 13 14 14 13 13 13 12 11
32 30 31 31 30 29 25 24 23 23 23 22 21 20 20 20 19 17 16 15 14 14 13 13 13 13 13 12 12 13 13 14 14 14 14 14 14 14 15 14 14 13 13 13
33 31 31 31 31 30 26 24 24 23 23 21 20 20 20 20 19 17 15 14 15 15 14 13 14 13 13 13 13 13 13 13 14 14 14 15 15 15 15 15 15 15 14 14
33 33 32 31 31 31 27 25 25 25 23 21 21 21 20 20 19 18 16 15 15 15 15 14 14 14 14 14 14 14 14 14 14 14 14 15 16 16 16 16 16 16 15 15
34 33 33 32 32 31 28 28 26 24 22 21 20 20 21 20 20 19 17 16 15 16 15 15 15 15 15 15 15 15 15 15 15 16 16 15 16 17 17 17 17 17 17 17
33 33 33 32 31 29 28 28 26 24 23 22 21 20 20 20 20 19 18 17 16 16 16 16 16 16 16 15 15 15 16 16 16 16 16 16 16 17 17 17 17 17 18 17
33 33 33 33 31 31 29 28 27 25 25 23 23 22 21 21 20 19 19 18 17 16 16 16 16 17 17 16 16 16 17 17 17 17 17 17 17 17 18 18 19 19 19 19
33 33 33 33 32 31 30 28 26 26 25 24 23 22 22 21 20 20 20 19 17 17 16 16 16 17 18 18 17 17 17 17 16 17 18 18 19 19 19 20 19 19 19 19
31 32 33 31 31 32 32 31 28 27 25 25 24 23 22 22 21 20 20 19 18 17 17 17 17 17 17 18 18 18 18 18 17 17 18 18 19 20 20 20 19 19 19 19
Wind_Direction
260 262 263 265 265 268 271 272 277 280 283 285 285 283 283 282 282 285 286 287 287 285 285 284 284 285 285 285 284 281 271 269 269 266 269 261 257 253 246 254 248 221 201 191
259 259 258 259 262 267 270 272 275 278 282 284 284 284 283 284 284 285 285 284 283 281 279 280 281 279 277 279 279 276 270 263 264 263 260 258 258 250 244 235 226 211 191 187
258 259 257 257 261 265 270 273 275 278 282 282 283 283 284 283 283 284 284 285 284 280 279 278 277 276 273 273 274 271 267 260 260 257 253 250 252 241 234 224 217 204 195 187
256 257 257 257 261 265 269 271 274 276 278 282 283 284 285 285 283 283 282 283 282 280 278 277 275 273 272 270 269 268 265 260 256 254 251 249 244 235 229 223 220 209 201 199
256 258 258 257 262 265 268 272 272 274 276 279 281 282 287 285 285 285 285 284 283 282 279 276 274 271 269 267 266 265 260 257 256 255 250 241 235 230 226 222 220 214 208 209
254 256 258 258 260 265 267 269 270 271 274 278 280 280 282 286 288 288 287 286 283 279 278 276 273 271 267 263 262 260 257 256 255 252 249 234 229 228 225 221 220 218 214 216
256 257 258 259 259 261 264 266 268 271 274 280 281 279 281 284 287 288 287 286 283 278 275 274 273 269 265 262 260 257 257 255 253 249 240 229 227 228 226 223 224 223 219 218
256 257 259 261 261 262 263 263 264 269 274 276 276 276 280 284 287 288 286 283 282 278 276 273 271 267 264 262 259 254 252 251 246 238 232 230 225 226 225 226 227 227 222 220
256 258 258 259 260 259 259 259 262 263 266 266 273 278 281 284 289 288 284 281 280 277 275 273 269 267 263 261 258 252 246 245 239 230 229 229 226 224 225 228 228 228 227 226
253 256 257 258 259 256 256 257 258 259 261 263 264 272 282 284 285 284 283 281 279 278 273 270 268 266 262 257 252 248 240 240 233 226 223 224 226 225 227 227 226 224 224 227
247 251 255 259 260 258 255 256 257 258 261 263 265 270 276 281 284 282 281 279 277 276 272 269 269 266 260 251 247 246 238 233 230 225 223 226 228 227 228 225 222 223 226 230
244 248 252 255 258 258 257 256 256 257 258 260 263 267 274 278 280 279 279 278 276 271 268 268 266 262 256 249 246 240 233 230 225 225 224 226 227 226 230 230 226 224 227 231
242 244 247 250 252 255 255 253 253 254 256 258 262 266 271 274 275 277 277 275 272 270 266 265 262 258 251 246 243 237 231 227 224 224 224 225 226 226 226 226 225 226 230 234
240 243 245 248 253 256 257 255 254 254 255 258 258 262 268 272 275 277 277 274 270 267 265 264 259 254 250 245 240 237 232 226 226 223 221 223 223 223 226 227 230 233 235 237
239 243 245 246 250 252 256 256 255 254 255 256 256 258 266 271 273 273 272 271 268 265 262 258 254 251 249 244 238 235 232 226 225 224 223 224 224 226 228 231 235 235 237 237
239 241 243 244 248 251 252 253 252 252 252 253 253 255 263 270 271 270 268 267 264 264 264 259 253 250 247 239 235 233 230 225 225 225 224 225 226 228 230 232 233 234 235 236
238 241 243 244 245 251 250 250 252 253 251 252 253 255 258 264 267 267 266 267 266 265 264 261 256 251 246 240 234 231 229 224 223 223 224 227 227 227 228 228 230 232 235 236
238 239 242 243 244 247 250 250 252 253 252 252 253 253 256 261 262 262 262 263 263 263 262 259 254 248 244 240 235 231 229 227 225 223 225 230 229 228 228 229 230 235 235 238
237 238 240 241 244 247 247 246 248 251 251 251 252 252 255 258 260 258 259 258 259 259 260 255 249 245 242 240 236 232 230 230 230 227 229 230 229 228 229 231 234 235 235 239
236 238 238 240 243 244 246 245 247 250 251 249 251 251 252 254 255 255 257 256 254 256 258 255 246 241 240 237 235 233 230 232 232 229 231 232 230 231 233 234 235 236 238 242
235 236 237 238 242 244 244 244 246 249 252 251 251 251 249 251 254 255 256 255 252 254 254 252 245 242 239 239 236 235 235 237 236 232 233 234 233 232 235 236 237 237 240 245
234 235 237 238 239 241 243 243 244 248 249 251 252 251 249 250 252 253 255 255 253 252 252 249 244 241 240 240 239 238 237 239 238 236 236 237 236 236 236 237 238 240 243 247
234 236 239 239 239 242 243 243 242 244 247 249 250 249 246 246 249 249 250 252 253 252 251 248 244 242 240 240 240 239 238 239 239 237 238 239 241 238 237 239 241 243 246 248
235 235 237 238 238 240 242 242 240 241 245 247 248 247 244 245 247 248 249 250 252 252 251 248 245 243 241 242 240 240 240 238 238 241 241 243 242 241 241 243 245 247 248 251
234 234 235 237 236 237 238 240 239 240 243 244 245 246 244 243 244 245 246 248 249 249 249 249 246 243 240 240 240 239 238 239 241 243 246 247 246 245 244 246 249 251 252 251
231 232 232 234 236 235 238 240 240 241 242 241 241 243 243 242 241 242 244 246 246 247 249 248 246 243 242 241 242 243 242 242 244 246 249 250 249 249 250 248 248 250 251 252
Height
5854 5856 5856 5857 5857 5858 5858 5858 5858 5858 5857 5858 5857 5857 5857 5857 5857 5857 5856 5856 5855 5855 5855 5854 5854 5855 5855 5855 5855 5855 5856 5856 5857 5857 5857 5858 5858 5859 5859 5860 5860 5860 5861 5861
5852 5853 5854 5854 5854 5855 5855 5855 5855 5855 5855 5855 5855 5855 5854 5854 5854 5854 5853 5853 5853 5853 5852 5852 5852 5852 5853 5853 5853 5853 5854 5855 5855 5856 5856 5857 5857 5858 5859 5859 5860 5860 5861 5861
5848 5850 5850 5851 5852 5852 5853 5853 5853 5853 5852 5852 5852 5852 5852 5851 5851 5851 5850 5850 5850 5849 5849 5849 5849 5849 5850 5850 5851 5851 5852 5852 5853 5854 5855 5855 5856 5857 5858 5859 5859 5860 5861 5861
5845 5846 5847 5848 5849 5849 5850 5850 5850 5850 5850 5849 5850 5849 5849 5848 5848 5848 5848 5847 5847 5846 5846 5846 5846 5847 5847 5848 5848 5849 5849 5850 5851 5852 5853 5854 5855 5856 5857 5858 5859 5860 5860 5861
5841 5843 5843 5844 5846 5846 5847 5847 5847 5847 5847 5847 5847 5846 5847 5845 5845 5845 5844 5844 5844 5843 5843 5843 5844 5844 5844 5845 5845 5846 5847 5848 5849 5850 5851 5852 5854 5855 5856 5857 5858 5859 5860 5861
5838 5839 5839 5841 5842 5843 5843 5844 5844 5844 5844 5844 5844 5844 5843 5842 5842 5841 5841 5841 5841 5840 5840 5840 5841 5841 5841 5842 5843 5843 5845 5846 5846 5848 5849 5851 5852 5854 5855 5856 5858 5859 5859 5860
5833 5835 5836 5837 5838 5839 5840 5841 5841 5841 5841 5841 5841 5840 5841 5839 5839 5838 5838 5838 5837 5837 5837 5837 5837 5838 5838 5839 5840 5841 5842 5843 5844 5846 5847 5849 5851 5853 5854 5855 5857 5858 5859 5860
5829 5831 5832 5833 5834 5835 5836 5837 5838 5839 5838 5838 5837 5837 5837 5836 5836 5835 5835 5834 5834 5834 5834 5834 5834 5835 5835 5836 5837 5838 5839 5840 5842 5844 5845 5847 5849 5851 5853 5854 5856 5857 5858 5859
5825 5827 5828 5829 5830 5831 5832 5832 5834 5834 5834 5834 5834 5834 5833 5833 5832 5832 5831 5831 5831 5830 5831 5831 5831 5831 5832 5833 5834 5835 5837 5838 5840 5842 5844 5846 5847 5849 5851 5853 5854 5856 5857 5858
5820 5822 5823 5824 5825 5826 5828 5829 5829 5830 5830 5831 5832 5831 5830 5829 5829 5828 5828 5827 5827 5827 5827 5828 5828 5829 5829 5830 5831 5833 5834 5836 5838 5840 5842 5844 5845 5847 5849 5851 5852 5854 5856 5857
5815 5817 5818 5819 5821 5822 5824 5824 5825 5826 5826 5827 5827 5829 5827 5825 5825 5825 5824 5824 5824 5824 5824 5825 5825 5826 5827 5828 5829 5830 5832 5834 5836 5838 5840 5842 5844 5846 5847 5849 5851 5852 5854 5855
5809 5811 5812 5815 5816 5817 5818 5820 5821 5822 5822 5823 5823 5826 5823 5822 5822 5821 5821 5821 5821 5821 5821 5822 5822 5823 5824 5825 5826 5828 5829 5831 5833 5835 5837 5840 5842 5844 5845 5847 5849 5851 5852 5854
5803 5805 5807 5808 5812 5812 5813 5814 5815 5817 5818 5818 5819 5822 5818 5818 5818 5818 5818 5818 5818 5818 5819 5819 5820 5820 5821 5823 5824 5825 5827 5829 5831 5833 5835 5837 5840 5842 5843 5845 5847 5849 5850 5852
5796 5798 5802 5804 5805 5806 5808 5809 5811 5812 5813 5814 5815 5815 5814 5815 5815 5815 5815 5815 5816 5816 5816 5817 5817 5818 5819 5820 5822 5823 5825 5827 5829 5831 5833 5835 5838 5839 5841 5843 5845 5847 5849 5850
5789 5792 5794 5797 5799 5801 5802 5803 5805 5807 5808 5810 5811 5811 5811 5811 5812 5812 5812 5813 5813 5813 5814 5814 5815 5816 5817 5818 5819 5821 5823 5825 5827 5829 5831 5833 5835 5837 5839 5841 5843 5844 5846 5848
5782 5785 5788 5790 5793 5794 5796 5798 5799 5801 5803 5805 5806 5808 5808 5807 5808 5808 5809 5810 5810 5810 5811 5811 5812 5813 5814 5815 5817 5819 5821 5822 5824 5826 5828 5831 5833 5835 5837 5839 5841 5842 5844 5846
5774 5778 5781 5784 5786 5787 5789 5792 5794 5796 5798 5800 5802 5804 5804 5804 5804 5805 5806 5807 5807 5808 5808 5808 5809 5810 5811 5813 5814 5816 5818 5820 5822 5824 5826 5828 5830 5832 5834 5836 5838 5840 5842 5843
5767 5770 5773 5777 5780 5780 5786 5788 5789 5791 5793 5795 5797 5799 5799 5800 5801 5802 5803 5804 5804 5804 5805 5806 5806 5807 5809 5810 5812 5813 5815 5817 5819 5821 5824 5826 5827 5830 5832 5834 5836 5837 5839 5841
5760 5763 5766 5769 5771 5774 5779 5782 5783 5785 5788 5790 5792 5794 5795 5795 5796 5798 5799 5800 5801 5801 5802 5803 5804 5805 5806 5808 5809 5811 5813 5815 5817 5819 5821 5823 5825 5827 5829 5831 5833 5835 5836 5838
5752 5755 5760 5762 5765 5768 5774 5776 5778 5781 5782 5785 5787 5789 5790 5791 5792 5794 5795 5796 5797 5798 5799 5800 5801 5802 5804 5805 5806 5808 5810 5812 5814 5816 5818 5820 5821 5824 5826 5828 5830 5831 5833 5835
5744 5748 5751 5755 5758 5761 5767 5770 5773 5776 5778 5780 5782 5783 5785 5786 5788 5790 5791 5792 5793 5795 5796 5797 5798 5799 5801 5802 5804 5805 5807 5809 5811 5812 5814 5816 5818 5820 5822 5824 5826 5828 5830 5831
5737 5740 5744 5748 5751 5758 5761 5763 5767 5770 5772 5774 5776 5778 5780 5782 5783 5785 5787 5788 5790 5791 5792 5794 5795 5796 5798 5799 5801 5802 5804 5806 5807 5809 5811 5813 5815 5817 5819 5820 5822 5824 5826 5827
5729 5734 5738 5743 5748 5752 5754 5757 5761 5764 5766 5768 5771 5773 5775 5777 5778 5781 5782 5784 5785 5787 5789 5790 5792 5793 5794 5796 5798 5799 5801 5802 5804 5806 5808 5809 5811 5813 5815 5817 5818 5820 5822 5823
5723 5727 5731 5735 5739 5744 5747 5750 5754 5757 5760 5763 5765 5768 5770 5772 5774 5776 5778 5780 5781 5783 5784 5786 5787 5789 5791 5793 5794 5796 5797 5799 5801 5802 5804 5806 5808 5809 5811 5813 5814 5816 5817 5819
5715 5719 5723 5727 5732 5736 5740 5743 5747 5751 5754 5756 5759 5762 5764 5767 5769 5771 5773 5775 5777 5779 5780 5782 5783 5785 5787 5788 5790 5792 5793 5795 5797 5798 5800 5801 5803 5805 5807 5808 5810 5811 5812 5814
5708 5712 5716 5721 5725 5729 5733 5736 5741 5745 5748 5750 5753 5756 5759 5761 5764 5766 5768 5770 5772 5774 5776 5777 5779 5780 5782 5784 5786 5787 5789 5791 5792 5794 5795 5797 5799 5800 5802 5803 5805 5806 5807 5808